Time,TemperatureF,DewpointF,PressureIn,WindDirection,WindDirectionDegrees,WindSpeedMPH,WindSpeedGustMPH,Humidity,HourlyPrecipIn,Conditions,Clouds,dailyrainin,SoftwareType,DateUTC
2013-08-21 00:00:00,72.5,71.0,30.13,SSW,202,4.0,9.0,95,0.00,,---,0.00,VWS V14.01,2013-08-21 04:00:00,
2013-08-21 00:01:00,72.5,71.0,30.13,SW,228,2.0,9.0,95,0.00,,---,0.00,VWS V14.01,2013-08-21 04:01:00,
2013-08-21 00:02:00,72.5,71.0,30.14,SSW,198,5.0,6.0,95,0.00,,---,0.00,VWS V14.01,2013-08-21 04:02:00,
2013-08-21 00:07:00,72.6,71.1,30.14,SW,224,3.0,6.0,95,0.00,,---,0.00,VWS V14.01,2013-08-21 04:07:00,
2013-08-21 00:12:00,72.7,71.2,30.13,South,184,2.0,6.0,95,0.00,,---,0.00,VWS V14.01,2013-08-21 04:12:00,
2013-08-21 00:17:00,72.7,70.9,30.14,SSW,200,1.0,6.0,94,0.00,,---,0.00,VWS V14.01,2013-08-21 04:17:00,
2013-08-21 00:22:00,72.8,71.0,30.13,South,174,2.0,6.0,94,0.00,,---,0.00,VWS V14.01,2013-08-21 04:22:00,
2013-08-21 00:27:00,72.8,71.0,30.14,SSW,212,3.0,6.0,94,0.00,,---,0.00,VWS V14.01,2013-08-21 04:27:00,
2013-08-21 00:30:00,72.9,71.1,30.14,SSW,202,3.0,6.0,94,0.00,,---,0.00,VWS V14.01,2013-08-21 04:30:00,
2013-08-21 00:32:00,72.9,70.8,30.14,SSW,202,2.0,4.0,93,0.00,,---,0.00,VWS V14.01,2013-08-21 04:32:00,
2013-08-21 00:37:00,73.0,70.9,30.13,SSW,210,3.0,7.0,93,0.00,,---,0.00,VWS V14.01,2013-08-21 04:37:00,
2013-08-21 00:42:00,73.3,70.8,30.13,WSW,237,3.0,8.0,92,0.00,,---,0.00,VWS V14.01,2013-08-21 04:42:00,
2013-08-21 00:47:00,73.6,70.8,30.13,SW,230,3.0,8.0,91,0.00,,---,0.00,VWS V14.01,2013-08-21 04:47:00,
2013-08-21 00:52:00,73.8,70.7,30.14,SW,233,3.0,9.0,90,0.00,,---,0.00,VWS V14.01,2013-08-21 04:52:00,
2013-08-21 00:57:00,73.9,70.8,30.13,SW,226,5.0,9.0,90,0.00,,---,0.00,VWS V14.01,2013-08-21 04:57:00,
2013-08-21 01:00:00,74.0,70.9,30.14,SW,225,4.0,10.0,90,0.00,,---,0.00,VWS V14.01,2013-08-21 05:00:00,
2013-08-21 01:02:00,74.0,70.9,30.13,WSW,246,3.0,5.0,90,0.00,,---,0.00,VWS V14.01,2013-08-21 05:02:00,
2013-08-21 01:07:00,74.0,70.9,30.13,SW,231,7.0,10.0,90,0.00,,---,0.00,VWS V14.01,2013-08-21 05:07:00,
2013-08-21 01:12:00,73.8,70.7,30.13,South,174,5.0,11.0,90,0.00,,---,0.00,VWS V14.01,2013-08-21 05:12:00,
2013-08-21 01:17:00,73.6,70.8,30.13,SSW,213,3.0,11.0,91,0.00,,---,0.00,VWS V14.01,2013-08-21 05:17:00,
2013-08-21 01:22:00,73.4,70.9,30.13,SW,227,3.0,11.0,92,0.00,,---,0.00,VWS V14.01,2013-08-21 05:22:00,
2013-08-21 01:27:00,73.3,70.8,30.13,WSW,239,3.0,11.0,92,0.00,,---,0.00,VWS V14.01,2013-08-21 05:27:00,
2013-08-21 01:32:00,73.2,70.7,30.13,South,181,6.0,8.0,92,0.00,,---,0.00,VWS V14.01,2013-08-21 05:32:00,
2013-08-21 01:37:00,73.1,70.6,30.13,SW,216,3.0,9.0,92,0.00,,---,0.00,VWS V14.01,2013-08-21 05:37:00,
2013-08-21 01:42:00,73.0,70.9,30.13,WSW,239,6.0,9.0,93,0.00,,---,0.00,VWS V14.01,2013-08-21 05:42:00,
2013-08-21 01:47:00,72.9,70.8,30.13,SW,219,4.0,9.0,93,0.00,,---,0.00,VWS V14.01,2013-08-21 05:47:00,
2013-08-21 01:52:00,72.9,70.8,30.13,WSW,243,4.0,9.0,93,0.00,,---,0.00,VWS V14.01,2013-08-21 05:52:00,
2013-08-21 01:57:00,72.9,70.8,30.13,WSW,242,5.0,9.0,93,0.00,,---,0.00,VWS V14.01,2013-08-21 05:57:00,
2013-08-21 02:00:00,72.8,70.7,30.13,WSW,248,5.0,9.0,93,0.00,,---,0.00,VWS V14.01,2013-08-21 06:00:00,
2013-08-21 02:02:00,72.8,70.7,30.13,SW,217,6.0,7.0,93,0.00,,---,0.00,VWS V14.01,2013-08-21 06:02:00,
2013-08-21 02:07:00,72.7,70.9,30.13,West,262,3.0,9.0,94,0.00,,---,0.00,VWS V14.01,2013-08-21 06:07:00,
2013-08-21 02:12:00,72.6,70.8,30.14,SW,230,4.0,9.0,94,0.00,,---,0.00,VWS V14.01,2013-08-21 06:12:00,
2013-08-21 02:17:00,72.6,70.8,30.14,SW,223,6.0,9.0,94,0.00,,---,0.00,VWS V14.01,2013-08-21 06:17:00,
2013-08-21 02:22:00,72.6,70.8,30.14,West,259,4.0,9.0,94,0.00,,---,0.00,VWS V14.01,2013-08-21 06:22:00,
2013-08-21 02:27:00,72.6,70.8,30.14,SW,236,9.0,9.0,94,0.00,,---,0.00,VWS V14.01,2013-08-21 06:27:00,
2013-08-21 02:30:00,72.6,70.8,30.14,WSW,248,5.0,9.0,94,0.00,,---,0.00,VWS V14.01,2013-08-21 06:30:00,
2013-08-21 02:32:00,72.6,70.8,30.14,WSW,252,9.0,11.0,94,0.00,,---,0.00,VWS V14.01,2013-08-21 06:32:00,
2013-08-21 02:37:00,72.6,70.8,30.14,West,269,9.0,11.0,94,0.00,,---,0.00,VWS V14.01,2013-08-21 06:37:00,
2013-08-21 02:42:00,72.5,70.7,30.14,SW,221,5.0,11.0,94,0.00,,---,0.00,VWS V14.01,2013-08-21 06:42:00,
2013-08-21 02:47:00,72.5,71.0,30.14,WSW,249,6.0,11.0,95,0.00,,---,0.00,VWS V14.01,2013-08-21 06:47:00,
2013-08-21 02:52:00,72.4,70.9,30.14,SW,233,6.0,11.0,95,0.00,,---,0.00,VWS V14.01,2013-08-21 06:52:00,
2013-08-21 02:57:00,72.4,70.6,30.14,WSW,252,6.0,11.0,94,0.00,,---,0.00,VWS V14.01,2013-08-21 06:57:00,
2013-08-21 03:00:00,72.4,70.9,30.14,WSW,248,6.0,11.0,95,0.00,,---,0.00,VWS V14.01,2013-08-21 07:00:00,
2013-08-21 03:02:00,72.4,70.6,30.14,West,264,3.0,7.0,94,0.00,,---,0.00,VWS V14.01,2013-08-21 07:02:00,
2013-08-21 03:07:00,72.3,70.8,30.14,West,263,4.0,7.0,95,0.00,,---,0.00,VWS V14.01,2013-08-21 07:07:00,
2013-08-21 03:12:00,72.3,70.8,30.14,WSW,240,5.0,7.0,95,0.00,,---,0.00,VWS V14.01,2013-08-21 07:12:00,
2013-08-21 03:17:00,72.3,70.8,30.14,West,259,2.0,7.0,95,0.00,,---,0.00,VWS V14.01,2013-08-21 07:17:00,
2013-08-21 03:22:00,72.3,70.8,30.14,WSW,248,5.0,7.0,95,0.00,,---,0.00,VWS V14.01,2013-08-21 07:22:00,
2013-08-21 03:27:00,72.4,70.6,30.14,WSW,240,6.0,7.0,94,0.00,,---,0.00,VWS V14.01,2013-08-21 07:27:00,
2013-08-21 03:30:00,72.4,70.6,30.14,WSW,248,4.0,9.0,94,0.00,,---,0.00,VWS V14.01,2013-08-21 07:30:00,
2013-08-21 03:32:00,72.4,70.6,30.14,SW,226,4.0,8.0,94,0.00,,---,0.00,VWS V14.01,2013-08-21 07:32:00,
2013-08-21 03:37:00,72.4,70.6,30.14,West,262,4.0,9.0,94,0.00,,---,0.00,VWS V14.01,2013-08-21 07:37:00,
2013-08-21 03:42:00,72.3,70.5,30.14,WSW,258,4.0,10.0,94,0.00,,---,0.00,VWS V14.01,2013-08-21 07:42:00,
2013-08-21 03:47:00,72.3,70.5,30.14,SW,236,7.0,10.0,94,0.00,,---,0.00,VWS V14.01,2013-08-21 07:47:00,
2013-08-21 03:52:00,72.2,70.4,30.14,SW,234,6.0,10.0,94,0.00,,---,0.00,VWS V14.01,2013-08-21 07:52:00,
2013-08-21 03:57:00,72.0,70.2,30.14,West,259,6.0,10.0,94,0.00,,---,0.00,VWS V14.01,2013-08-21 07:57:00,
2013-08-21 04:00:00,71.9,70.1,30.14,WSW,248,6.0,12.0,94,0.00,,---,0.00,VWS V14.01,2013-08-21 08:00:00,
2013-08-21 04:02:00,71.8,70.0,30.14,WSW,253,5.0,6.0,94,0.00,,---,0.00,VWS V14.01,2013-08-21 08:02:00,
2013-08-21 04:07:00,71.7,69.9,30.14,WSW,242,8.0,8.0,94,0.00,,---,0.00,VWS V14.01,2013-08-21 08:07:00,
2013-08-21 04:12:00,71.6,69.8,30.14,West,273,4.0,8.0,94,0.00,,---,0.00,VWS V14.01,2013-08-21 08:12:00,
2013-08-21 04:17:00,71.5,70.0,30.14,WSW,248,5.0,8.0,95,0.00,,---,0.00,VWS V14.01,2013-08-21 08:17:00,
2013-08-21 04:22:00,71.3,69.8,30.15,WSW,258,4.0,8.0,95,0.00,,---,0.00,VWS V14.01,2013-08-21 08:22:00,
2013-08-21 04:27:00,71.2,69.7,30.15,WNW,295,3.0,8.0,95,0.00,,---,0.00,VWS V14.01,2013-08-21 08:27:00,
2013-08-21 04:30:00,71.1,69.6,30.15,West,270,4.0,8.0,95,0.00,,---,0.00,VWS V14.01,2013-08-21 08:30:00,
2013-08-21 04:32:00,71.1,69.6,30.15,SW,231,2.0,6.0,95,0.00,,---,0.00,VWS V14.01,2013-08-21 08:32:00,
2013-08-21 04:37:00,71.1,69.6,30.15,SSW,212,4.0,7.0,95,0.00,,---,0.00,VWS V14.01,2013-08-21 08:37:00,
2013-08-21 04:42:00,71.1,69.6,30.15,WSW,237,8.0,8.0,95,0.00,,---,0.00,VWS V14.01,2013-08-21 08:42:00,
2013-08-21 04:47:00,71.1,69.6,30.15,West,259,5.0,8.0,95,0.00,,---,0.00,VWS V14.01,2013-08-21 08:47:00,
2013-08-21 04:53:00,71.0,69.5,30.15,West,274,5.0,8.0,95,0.00,,---,0.00,VWS V14.01,2013-08-21 08:53:00,
2013-08-21 04:57:00,71.1,69.6,30.15,WSW,258,6.0,8.0,95,0.00,,---,0.00,VWS V14.01,2013-08-21 08:57:00,
2013-08-21 05:00:00,71.1,69.6,30.15,WSW,248,5.0,8.0,95,0.00,,---,0.00,VWS V14.01,2013-08-21 09:00:00,
2013-08-21 05:02:00,71.0,69.5,30.15,WSW,255,3.0,6.0,95,0.00,,---,0.00,VWS V14.01,2013-08-21 09:02:00,
2013-08-21 05:07:00,71.0,69.5,30.15,SW,218,5.0,6.0,95,0.00,,---,0.00,VWS V14.01,2013-08-21 09:07:00,
2013-08-21 05:13:00,71.0,69.5,30.15,SW,231,5.0,8.0,95,0.00,,---,0.00,VWS V14.01,2013-08-21 09:13:00,
2013-08-21 05:18:00,71.0,69.5,30.15,WSW,240,4.0,8.0,95,0.00,,---,0.00,VWS V14.01,2013-08-21 09:18:00,
2013-08-21 05:23:00,71.0,69.5,30.15,WSW,255,4.0,8.0,95,0.00,,---,0.00,VWS V14.01,2013-08-21 09:23:00,
2013-08-21 05:28:00,71.0,69.2,30.15,West,274,4.0,9.0,94,0.00,,---,0.00,VWS V14.01,2013-08-21 09:28:00,
2013-08-21 05:30:00,70.9,69.1,30.15,WSW,248,5.0,9.0,94,0.00,,---,0.00,VWS V14.01,2013-08-21 09:30:00,
2013-08-21 05:33:00,70.9,69.4,30.15,SW,218,5.0,7.0,95,0.00,,---,0.00,VWS V14.01,2013-08-21 09:33:00,
2013-08-21 05:38:00,70.9,69.4,30.15,WSW,237,6.0,7.0,95,0.00,,---,0.00,VWS V14.01,2013-08-21 09:38:00,
2013-08-21 05:43:00,70.9,69.4,30.15,West,273,6.0,7.0,95,0.00,,---,0.00,VWS V14.01,2013-08-21 09:43:00,
2013-08-21 05:48:00,70.9,69.4,30.15,WSW,252,4.0,7.0,95,0.00,,---,0.00,VWS V14.01,2013-08-21 09:48:00,
2013-08-21 05:53:00,70.9,69.4,30.15,WSW,247,6.0,8.0,95,0.00,,---,0.00,VWS V14.01,2013-08-21 09:53:00,
2013-08-21 05:58:00,70.8,69.3,30.15,WSW,256,3.0,8.0,95,0.00,,---,0.00,VWS V14.01,2013-08-21 09:58:00,
2013-08-21 06:00:00,70.8,69.3,30.15,West,270,4.0,8.0,95,0.00,,---,0.00,VWS V14.01,2013-08-21 10:00:00,
2013-08-21 06:03:00,70.8,69.3,30.15,West,269,3.0,4.0,95,0.00,,---,0.00,VWS V14.01,2013-08-21 10:03:00,
2013-08-21 06:08:00,70.8,69.3,30.16,West,269,5.0,5.0,95,0.00,,---,0.00,VWS V14.01,2013-08-21 10:08:00,
2013-08-21 06:13:00,70.8,69.3,30.16,WNW,285,4.0,6.0,95,0.00,,---,0.00,VWS V14.01,2013-08-21 10:13:00,
2013-08-21 06:18:00,70.7,69.2,30.16,West,279,3.0,6.0,95,0.00,,---,0.00,VWS V14.01,2013-08-21 10:18:00,
2013-08-21 06:23:00,70.6,69.1,30.16,West,268,3.0,6.0,95,0.00,,---,0.00,VWS V14.01,2013-08-21 10:23:00,
2013-08-21 06:28:00,70.6,69.1,30.16,WNW,285,3.0,6.0,95,0.00,,---,0.00,VWS V14.01,2013-08-21 10:28:00,
2013-08-21 06:30:00,70.6,69.1,30.16,West,270,3.0,6.0,95,0.00,,---,0.00,VWS V14.01,2013-08-21 10:30:00,
2013-08-21 06:33:00,70.6,69.1,30.16,West,275,3.0,5.0,95,0.00,,---,0.00,VWS V14.01,2013-08-21 10:33:00,
2013-08-21 06:38:00,70.8,69.3,30.16,West,266,4.0,5.0,95,0.00,,---,0.00,VWS V14.01,2013-08-21 10:38:00,
2013-08-21 06:43:00,71.0,69.5,30.16,WSW,256,2.0,5.0,95,0.00,,---,0.00,VWS V14.01,2013-08-21 10:43:00,
2013-08-21 06:48:00,71.2,69.7,30.16,WSW,254,2.0,5.0,95,0.00,,---,0.00,VWS V14.01,2013-08-21 10:48:00,
2013-08-21 06:53:00,71.3,69.8,30.16,WNW,283,3.0,5.0,95,0.00,,---,0.00,VWS V14.01,2013-08-21 10:53:00,
2013-08-21 06:58:00,71.6,69.8,30.16,WNW,293,2.0,5.0,94,0.00,,---,0.00,VWS V14.01,2013-08-21 10:58:00,
2013-08-21 07:00:00,71.6,69.8,30.16,West,270,3.0,6.0,94,0.00,,---,0.00,VWS V14.01,2013-08-21 11:00:00,
2013-08-21 07:03:00,71.7,69.9,30.16,West,268,3.0,5.0,94,0.00,,---,0.00,VWS V14.01,2013-08-21 11:03:00,
2013-08-21 07:08:00,71.9,70.1,30.17,WSW,238,2.0,5.0,94,0.00,,---,0.00,VWS V14.01,2013-08-21 11:08:00,
2013-08-21 07:13:00,72.0,70.2,30.17,West,273,2.0,5.0,94,0.00,,---,0.00,VWS V14.01,2013-08-21 11:13:00,
2013-08-21 07:18:00,72.2,70.4,30.17,SW,231,1.0,5.0,94,0.00,,---,0.00,VWS V14.01,2013-08-21 11:18:00,
2013-08-21 07:23:00,72.5,70.7,30.17,WSW,251,0.0,5.0,94,0.00,,---,0.00,VWS V14.01,2013-08-21 11:23:00,
2013-08-21 07:28:00,72.9,70.8,30.17,SW,225,1.0,5.0,93,0.00,,---,0.00,VWS V14.01,2013-08-21 11:28:00,
2013-08-21 07:30:00,73.1,71.0,30.17,West,270,2.0,5.0,93,0.00,,---,0.00,VWS V14.01,2013-08-21 11:30:00,
2013-08-21 07:33:00,73.3,70.8,30.17,WSW,240,3.0,4.0,92,0.00,,---,0.00,VWS V14.01,2013-08-21 11:33:00,
2013-08-21 07:38:00,73.6,71.1,30.18,SW,234,4.0,5.0,92,0.00,,---,0.00,VWS V14.01,2013-08-21 11:38:00,
2013-08-21 07:43:00,73.8,71.3,30.17,SW,232,1.0,6.0,92,0.00,,---,0.00,VWS V14.01,2013-08-21 11:43:00,
2013-08-21 07:48:00,73.9,71.4,30.17,SW,235,4.0,6.0,92,0.00,,---,0.00,VWS V14.01,2013-08-21 11:48:00,
2013-08-21 07:53:00,74.3,71.5,30.17,SW,217,2.0,6.0,91,0.00,,---,0.00,VWS V14.01,2013-08-21 11:53:00,
2013-08-21 07:58:00,74.7,71.9,30.18,WSW,248,7.0,7.0,91,0.00,,---,0.00,VWS V14.01,2013-08-21 11:58:00,
2013-08-21 08:00:00,74.9,71.8,30.18,SW,225,3.0,7.0,90,0.00,,---,0.00,VWS V14.01,2013-08-21 12:00:00,
2013-08-21 08:03:00,75.0,71.9,30.18,WSW,256,5.0,6.0,90,0.00,,---,0.00,VWS V14.01,2013-08-21 12:03:00,
2013-08-21 08:08:00,74.9,71.8,30.18,WSW,258,4.0,7.0,90,0.00,,---,0.00,VWS V14.01,2013-08-21 12:08:00,
2013-08-21 08:13:00,74.9,72.1,30.18,SW,226,2.0,7.0,91,0.00,,---,0.00,VWS V14.01,2013-08-21 12:13:00,
2013-08-21 08:18:00,75.0,71.9,30.18,WSW,238,5.0,7.0,90,0.00,,---,0.00,VWS V14.01,2013-08-21 12:18:00,
2013-08-21 08:23:00,75.3,72.2,30.18,SW,229,3.0,8.0,90,0.00,,---,0.00,VWS V14.01,2013-08-21 12:23:00,
2013-08-21 08:28:00,75.4,72.3,30.18,NNE,28,2.0,8.0,90,0.00,,---,0.00,VWS V14.01,2013-08-21 12:28:00,
2013-08-21 08:30:00,75.5,72.0,30.18,WSW,248,4.0,8.0,89,0.00,,---,0.00,VWS V14.01,2013-08-21 12:30:00,
2013-08-21 08:33:00,75.7,72.2,30.18,WNW,297,2.0,5.0,89,0.00,,---,0.00,VWS V14.01,2013-08-21 12:33:00,
2013-08-21 08:38:00,76.5,73.0,30.18,SW,236,3.0,6.0,89,0.00,,---,0.00,VWS V14.01,2013-08-21 12:38:00,
2013-08-21 08:43:00,76.7,72.9,30.18,West,277,5.0,6.0,88,0.00,,---,0.00,VWS V14.01,2013-08-21 12:43:00,
2013-08-21 08:48:00,76.5,72.7,30.18,WSW,237,5.0,9.0,88,0.00,,---,0.00,VWS V14.01,2013-08-21 12:48:00,
2013-08-21 08:53:00,76.6,72.4,30.18,SE,143,4.0,9.0,87,0.00,,---,0.00,VWS V14.01,2013-08-21 12:53:00,
2013-08-21 08:58:00,76.6,72.4,30.18,WSW,246,4.0,10.0,87,0.00,,---,0.00,VWS V14.01,2013-08-21 12:58:00,
2013-08-21 09:00:00,76.6,72.8,30.18,WSW,248,4.0,10.0,88,0.00,,---,0.00,VWS V14.01,2013-08-21 13:00:00,
2013-08-21 09:03:00,76.4,72.6,30.18,WNW,284,5.0,9.0,88,0.00,,---,0.00,VWS V14.01,2013-08-21 13:03:00,
2013-08-21 09:08:00,76.9,73.1,30.18,SSW,193,6.0,9.0,88,0.00,,---,0.00,VWS V14.01,2013-08-21 13:08:00,
2013-08-21 09:13:00,77.3,73.1,30.18,West,276,4.0,9.0,87,0.00,,---,0.00,VWS V14.01,2013-08-21 13:13:00,
2013-08-21 09:18:00,77.5,73.0,30.17,WNW,288,5.0,9.0,86,0.00,,---,0.00,VWS V14.01,2013-08-21 13:18:00,
2013-08-21 09:23:00,77.4,72.9,30.17,WSW,253,4.0,9.0,86,0.00,,---,0.00,VWS V14.01,2013-08-21 13:23:00,
2013-08-21 09:28:00,77.5,72.6,30.18,WSW,243,3.0,9.0,85,0.00,,---,0.00,VWS V14.01,2013-08-21 13:28:00,
2013-08-21 09:30:00,77.7,73.2,30.17,West,270,5.0,9.0,86,0.00,,---,0.00,VWS V14.01,2013-08-21 13:30:00,
2013-08-21 09:33:00,78.0,73.5,30.18,WSW,251,4.0,5.0,86,0.00,,---,0.00,VWS V14.01,2013-08-21 13:33:00,
2013-08-21 09:38:00,78.1,72.9,30.18,WSW,243,2.0,7.0,84,0.00,,---,0.00,VWS V14.01,2013-08-21 13:38:00,
2013-08-21 09:43:00,78.7,73.1,30.18,North,360,0.0,7.0,83,0.00,,---,0.00,VWS V14.01,2013-08-21 13:43:00,
2013-08-21 09:48:00,79.9,74.3,30.18,West,263,0.0,7.0,83,0.00,,---,0.00,VWS V14.01,2013-08-21 13:48:00,
2013-08-21 09:53:00,80.5,74.1,30.18,WSW,256,2.0,7.0,81,0.00,,---,0.00,VWS V14.01,2013-08-21 13:53:00,
2013-08-21 09:58:00,80.8,74.1,30.18,SSW,204,1.0,7.0,80,0.00,,---,0.00,VWS V14.01,2013-08-21 13:58:00,
2013-08-21 10:00:00,80.9,74.2,30.18,WSW,248,2.0,7.0,80,0.00,,---,0.00,VWS V14.01,2013-08-21 14:00:00,
2013-08-21 10:03:00,81.1,74.3,30.18,WNW,282,1.0,4.0,80,0.00,,---,0.00,VWS V14.01,2013-08-21 14:03:00,
2013-08-21 10:08:00,80.6,73.9,30.18,SW,236,3.0,6.0,80,0.00,,---,0.00,VWS V14.01,2013-08-21 14:08:00,
2013-08-21 10:13:00,79.1,73.1,30.18,West,271,2.0,8.0,82,0.00,,---,0.00,VWS V14.01,2013-08-21 14:13:00,
2013-08-21 10:18:00,79.4,74.2,30.18,ESE,103,1.0,8.0,84,0.00,,---,0.00,VWS V14.01,2013-08-21 14:18:00,
2013-08-21 10:23:00,79.7,73.7,30.18,SW,221,2.0,8.0,82,0.00,,---,0.00,VWS V14.01,2013-08-21 14:23:00,
2013-08-21 10:28:00,79.7,74.1,30.18,SW,214,2.0,8.0,83,0.00,,---,0.00,VWS V14.01,2013-08-21 14:28:00,
2013-08-21 10:30:00,79.7,73.7,30.18,SW,225,3.0,8.0,82,0.00,,---,0.00,VWS V14.01,2013-08-21 14:30:00,
2013-08-21 10:33:00,79.7,73.7,30.18,NE,50,4.0,6.0,82,0.00,,---,0.00,VWS V14.01,2013-08-21 14:33:00,
2013-08-21 10:38:00,79.3,73.7,30.18,West,266,3.0,7.0,83,0.00,,---,0.00,VWS V14.01,2013-08-21 14:38:00,
2013-08-21 10:43:00,79.4,73.4,30.18,South,191,4.0,7.0,82,0.00,,---,0.00,VWS V14.01,2013-08-21 14:43:00,
2013-08-21 10:48:00,79.7,74.1,30.18,South,189,3.0,7.0,83,0.00,,---,0.00,VWS V14.01,2013-08-21 14:48:00,
2013-08-21 10:53:00,79.6,74.0,30.18,SSE,163,5.0,9.0,83,0.00,,---,0.00,VWS V14.01,2013-08-21 14:53:00,
2013-08-21 10:59:00,79.7,74.1,30.18,West,260,3.0,9.0,83,0.00,,---,0.00,VWS V14.01,2013-08-21 14:59:00,
2013-08-21 11:00:00,79.9,73.9,30.18,SW,225,4.0,9.0,82,0.00,,---,0.00,VWS V14.01,2013-08-21 15:00:00,
2013-08-21 11:04:00,79.9,73.9,30.18,SE,124,3.0,9.0,82,0.00,,---,0.00,VWS V14.01,2013-08-21 15:04:00,
2013-08-21 11:09:00,79.9,74.3,30.18,SE,143,4.0,10.0,83,0.00,,---,0.00,VWS V14.01,2013-08-21 15:09:00,
2013-08-21 11:14:00,80.9,74.5,30.18,SSW,193,3.0,10.0,81,0.00,,---,0.00,VWS V14.01,2013-08-21 15:14:00,
2013-08-21 11:19:00,81.4,74.3,30.18,WSW,238,3.0,10.0,79,0.00,,---,0.00,VWS V14.01,2013-08-21 15:19:00,
2013-08-21 11:24:00,80.7,74.0,30.17,SSW,207,4.0,10.0,80,0.00,,---,0.00,VWS V14.01,2013-08-21 15:24:00,
2013-08-21 11:29:00,80.5,74.1,30.17,SW,235,2.0,10.0,81,0.00,,---,0.00,VWS V14.01,2013-08-21 15:29:00,
2013-08-21 11:30:00,80.3,73.9,30.17,SW,225,4.0,10.0,81,0.00,,---,0.00,VWS V14.01,2013-08-21 15:30:00,
2013-08-21 11:34:00,80.5,74.1,30.17,SSW,197,3.0,5.0,81,0.00,,---,0.00,VWS V14.01,2013-08-21 15:34:00,
2013-08-21 11:39:00,80.9,74.2,30.17,West,266,3.0,5.0,80,0.00,,---,0.00,VWS V14.01,2013-08-21 15:39:00,
2013-08-21 11:44:00,81.0,74.2,30.17,WSW,238,3.0,5.0,80,0.00,,---,0.00,VWS V14.01,2013-08-21 15:44:00,
2013-08-21 11:49:00,81.0,74.6,30.17,WSW,256,3.0,7.0,81,0.00,,---,0.00,VWS V14.01,2013-08-21 15:49:00,
2013-08-21 11:54:00,81.0,74.2,30.17,South,173,2.0,7.0,80,0.00,,---,0.00,VWS V14.01,2013-08-21 15:54:00,
2013-08-21 11:59:00,80.8,74.1,30.17,SW,227,4.0,7.0,80,0.00,,---,0.00,VWS V14.01,2013-08-21 15:59:00,
2013-08-21 12:00:00,80.9,74.2,30.17,SW,225,3.0,7.0,80,0.00,,---,0.00,VWS V14.01,2013-08-21 16:00:00,
2013-08-21 12:04:00,80.7,74.0,30.17,WSW,248,3.0,6.0,80,0.00,,---,0.00,VWS V14.01,2013-08-21 16:04:00,
2013-08-21 12:09:00,80.5,74.1,30.17,SSW,192,5.0,6.0,81,0.00,,---,0.00,VWS V14.01,2013-08-21 16:09:00,
2013-08-21 12:14:00,80.8,74.1,30.17,SSW,201,3.0,6.0,80,0.00,,---,0.00,VWS V14.01,2013-08-21 16:14:00,
2013-08-21 12:19:00,81.2,74.4,30.17,SW,226,3.0,6.0,80,0.00,,---,0.00,VWS V14.01,2013-08-21 16:19:00,
2013-08-21 12:24:00,81.5,74.4,30.17,SW,226,6.0,6.0,79,0.00,,---,0.00,VWS V14.01,2013-08-21 16:24:00,
2013-08-21 12:29:00,81.6,74.5,30.17,SW,231,5.0,6.0,79,0.00,,---,0.00,VWS V14.01,2013-08-21 16:29:00,
2013-08-21 12:30:00,81.9,74.8,30.17,SW,225,3.0,6.0,79,0.00,,---,0.00,VWS V14.01,2013-08-21 16:30:00,
2013-08-21 12:34:00,82.1,74.9,30.17,SE,136,3.0,5.0,79,0.00,,---,0.00,VWS V14.01,2013-08-21 16:34:00,
2013-08-21 12:39:00,81.9,74.8,30.17,SSW,202,3.0,7.0,79,0.00,,---,0.00,VWS V14.01,2013-08-21 16:39:00,
2013-08-21 12:44:00,81.7,74.2,30.17,South,172,3.0,7.0,78,0.00,,---,0.00,VWS V14.01,2013-08-21 16:44:00,
2013-08-21 12:49:00,81.6,74.5,30.17,South,191,4.0,9.0,79,0.00,,---,0.00,VWS V14.01,2013-08-21 16:49:00,
2013-08-21 12:54:00,81.2,74.4,30.17,NE,53,3.0,9.0,80,0.00,,---,0.00,VWS V14.01,2013-08-21 16:54:00,
2013-08-21 12:59:00,81.1,74.3,30.17,SSE,147,5.0,9.0,80,0.00,,---,0.00,VWS V14.01,2013-08-21 16:59:00,
2013-08-21 13:00:00,81.1,74.7,30.17,SW,225,3.0,9.0,81,0.00,,---,0.00,VWS V14.01,2013-08-21 17:00:00,
2013-08-21 13:04:00,81.3,74.5,30.17,South,170,4.0,6.0,80,0.00,,---,0.00,VWS V14.01,2013-08-21 17:04:00,
2013-08-21 13:09:00,81.5,74.4,30.16,ESE,115,3.0,7.0,79,0.00,,---,0.00,VWS V14.01,2013-08-21 17:09:00,
2013-08-21 13:14:00,82.0,74.8,30.16,ESE,105,3.0,7.0,79,0.00,,---,0.00,VWS V14.01,2013-08-21 17:14:00,
2013-08-21 13:19:00,81.9,74.4,30.16,NNE,33,2.0,7.0,78,0.00,,---,0.00,VWS V14.01,2013-08-21 17:19:00,
2013-08-21 13:24:00,81.7,74.6,30.16,SSW,205,2.0,7.0,79,0.00,,---,0.00,VWS V14.01,2013-08-21 17:24:00,
2013-08-21 13:29:00,81.8,74.7,30.16,NW,308,4.0,8.0,79,0.00,,---,0.00,VWS V14.01,2013-08-21 17:29:00,
2013-08-21 13:30:00,81.4,74.3,30.16,SW,225,3.0,9.0,79,0.00,,---,0.00,VWS V14.01,2013-08-21 17:30:00,
2013-08-21 13:34:00,81.4,74.6,30.16,WSW,243,4.0,5.0,80,0.00,,---,0.00,VWS V14.01,2013-08-21 17:34:00,
2013-08-21 13:39:00,81.8,75.0,30.16,SSE,157,4.0,7.0,80,0.00,,---,0.00,VWS V14.01,2013-08-21 17:39:00,
2013-08-21 13:44:00,82.4,74.9,30.16,SSE,160,3.0,7.0,78,0.00,,---,0.00,VWS V14.01,2013-08-21 17:44:00,
2013-08-21 13:49:00,82.5,74.9,30.15,ESE,111,4.0,7.0,78,0.00,,---,0.00,VWS V14.01,2013-08-21 17:49:00,
2013-08-21 13:54:00,82.7,75.2,30.15,ESE,108,4.0,8.0,78,0.00,,---,0.00,VWS V14.01,2013-08-21 17:54:00,
2013-08-21 13:59:00,82.8,74.9,30.15,South,169,4.0,8.0,77,0.00,,---,0.00,VWS V14.01,2013-08-21 17:59:00,
2013-08-21 14:00:00,82.6,74.7,30.15,SW,225,3.0,8.0,77,0.00,,---,0.00,VWS V14.01,2013-08-21 18:00:00,
2013-08-21 14:04:00,82.4,74.9,30.15,East,94,2.0,7.0,78,0.00,,---,0.00,VWS V14.01,2013-08-21 18:04:00,
2013-08-21 14:09:00,82.5,74.9,30.14,WSW,242,4.0,7.0,78,0.00,,---,0.00,VWS V14.01,2013-08-21 18:09:00,
2013-08-21 14:14:00,82.5,75.3,30.14,West,262,5.0,7.0,79,0.00,,---,0.00,VWS V14.01,2013-08-21 18:14:00,
2013-08-21 14:19:00,82.9,75.3,30.14,SSW,202,1.0,7.0,78,0.00,,---,0.00,VWS V14.01,2013-08-21 18:19:00,
2013-08-21 14:24:00,83.2,75.2,30.14,NNW,345,1.0,7.0,77,0.00,,---,0.00,VWS V14.01,2013-08-21 18:24:00,
2013-08-21 14:29:00,83.1,75.2,30.14,ESE,121,2.0,7.0,77,0.00,,---,0.00,VWS V14.01,2013-08-21 18:29:00,
2013-08-21 14:30:00,83.0,75.1,30.14,SW,225,3.0,7.0,77,0.00,,---,0.00,VWS V14.01,2013-08-21 18:30:00,
2013-08-21 14:34:00,82.7,74.8,30.14,ESE,105,4.0,6.0,77,0.00,,---,0.00,VWS V14.01,2013-08-21 18:34:00,
2013-08-21 14:39:00,82.6,75.1,30.13,SSE,162,3.0,6.0,78,0.00,,---,0.00,VWS V14.01,2013-08-21 18:39:00,
2013-08-21 14:44:00,82.2,74.7,30.13,NW,312,2.0,6.0,78,0.00,,---,0.00,VWS V14.01,2013-08-21 18:44:00,
2013-08-21 14:49:00,81.6,74.5,30.13,SSE,167,3.0,6.0,79,0.00,,---,0.00,VWS V14.01,2013-08-21 18:49:00,
2013-08-21 14:54:00,81.0,74.2,30.13,SW,225,6.0,7.0,80,0.00,,---,0.00,VWS V14.01,2013-08-21 18:54:00,
2013-08-21 14:59:00,80.8,74.4,30.13,East,85,4.0,7.0,81,0.00,,---,0.00,VWS V14.01,2013-08-21 18:59:00,
2013-08-21 15:00:00,80.8,74.4,30.13,SSW,202,3.0,7.0,81,0.00,,---,0.00,VWS V14.01,2013-08-21 19:00:00,
2013-08-21 15:04:00,80.3,74.3,30.13,WSW,240,5.0,6.0,82,0.00,,---,0.00,VWS V14.01,2013-08-21 19:04:00,
2013-08-21 15:09:00,79.7,74.1,30.12,SW,231,4.0,8.0,83,0.00,,---,0.00,VWS V14.01,2013-08-21 19:09:00,
2013-08-21 15:14:00,79.8,74.2,30.12,West,271,3.0,8.0,83,0.00,,---,0.00,VWS V14.01,2013-08-21 19:14:00,
2013-08-21 15:19:00,80.5,74.5,30.12,ENE,67,2.0,8.0,82,0.00,,---,0.00,VWS V14.01,2013-08-21 19:19:00,
2013-08-21 15:24:00,81.2,74.8,30.12,ESE,102,4.0,8.0,81,0.00,,---,0.00,VWS V14.01,2013-08-21 19:24:00,
2013-08-21 15:29:00,82.1,74.9,30.12,West,266,1.0,8.0,79,0.00,,---,0.00,VWS V14.01,2013-08-21 19:29:00,
2013-08-21 15:30:00,82.3,75.1,30.12,SW,225,3.0,8.0,79,0.00,,---,0.00,VWS V14.01,2013-08-21 19:30:00,
2013-08-21 15:34:00,82.5,74.9,30.12,NW,319,2.0,5.0,78,0.00,,---,0.00,VWS V14.01,2013-08-21 19:34:00,
2013-08-21 15:39:00,82.5,74.6,30.11,East,83,3.0,5.0,77,0.00,,---,0.00,VWS V14.01,2013-08-21 19:39:00,
2013-08-21 15:44:00,82.2,74.7,30.11,NW,323,3.0,5.0,78,0.00,,---,0.00,VWS V14.01,2013-08-21 19:44:00,
2013-08-21 15:49:00,81.9,74.4,30.11,West,263,3.0,5.0,78,0.00,,---,0.00,VWS V14.01,2013-08-21 19:49:00,
2013-08-21 15:54:00,81.3,74.2,30.11,NW,323,3.0,7.0,79,0.00,,---,0.00,VWS V14.01,2013-08-21 19:54:00,
2013-08-21 15:59:00,81.2,74.4,30.11,ESE,117,3.0,7.0,80,0.00,,---,0.00,VWS V14.01,2013-08-21 19:59:00,
2013-08-21 16:00:00,81.0,74.2,30.11,WSW,248,3.0,7.0,80,0.00,,---,0.00,VWS V14.01,2013-08-21 20:00:00,
2013-08-21 16:04:00,80.4,74.0,30.11,ESE,117,9.0,9.0,81,0.00,,---,0.00,VWS V14.01,2013-08-21 20:04:00,
2013-08-21 16:09:00,80.6,74.6,30.11,SW,222,4.0,9.0,82,0.00,,---,0.00,VWS V14.01,2013-08-21 20:09:00,
2013-08-21 16:14:00,80.6,74.2,30.11,West,265,5.0,9.0,81,0.00,,---,0.00,VWS V14.01,2013-08-21 20:14:00,
2013-08-21 16:19:00,80.2,74.2,30.11,SW,222,2.0,9.0,82,0.00,,---,0.00,VWS V14.01,2013-08-21 20:19:00,
2013-08-21 16:24:00,79.3,73.7,30.11,East,95,4.0,9.0,83,0.00,,---,0.00,VWS V14.01,2013-08-21 20:24:00,
2013-08-21 16:29:00,78.5,73.6,30.11,North,3,3.0,9.0,85,0.00,,---,0.00,VWS V14.01,2013-08-21 20:29:00,
2013-08-21 16:30:00,78.4,73.5,30.11,SW,225,4.0,9.0,85,0.00,,---,0.00,VWS V14.01,2013-08-21 20:30:00,
2013-08-21 16:34:00,78.0,73.5,30.11,WSW,238,4.0,7.0,86,0.00,,---,0.00,VWS V14.01,2013-08-21 20:34:00,
2013-08-21 16:39:00,77.6,73.4,30.11,South,190,2.0,7.0,87,0.00,,---,0.00,VWS V14.01,2013-08-21 20:39:00,
2013-08-21 16:44:00,77.5,73.3,30.11,NNE,16,4.0,7.0,87,0.00,,---,0.00,VWS V14.01,2013-08-21 20:44:00,
2013-08-21 16:49:00,77.6,73.4,30.11,SSE,154,2.0,7.0,87,0.00,,---,0.00,VWS V14.01,2013-08-21 20:49:00,
2013-08-21 16:54:00,78.0,73.8,30.10,SSW,210,2.0,7.0,87,0.00,,---,0.00,VWS V14.01,2013-08-21 20:54:00,
2013-08-21 16:59:00,78.8,73.9,30.10,SE,129,3.0,7.0,85,0.00,,---,0.00,VWS V14.01,2013-08-21 20:59:00,
2013-08-21 17:00:00,79.0,74.1,30.10,SSW,202,3.0,7.0,85,0.00,,---,0.00,VWS V14.01,2013-08-21 21:00:00,
2013-08-21 17:04:00,79.4,74.2,30.10,NNE,24,3.0,6.0,84,0.00,,---,0.00,VWS V14.01,2013-08-21 21:04:00,
2013-08-21 17:09:00,79.7,74.1,30.10,East,90,4.0,6.0,83,0.00,,---,0.00,VWS V14.01,2013-08-21 21:09:00,
2013-08-21 17:14:00,79.7,74.1,30.10,SSW,212,4.0,7.0,83,0.00,,---,0.00,VWS V14.01,2013-08-21 21:14:00,
2013-08-21 17:19:00,79.8,74.2,30.09,SSW,205,3.0,7.0,83,0.00,,---,0.00,VWS V14.01,2013-08-21 21:19:00,
2013-08-21 17:24:00,79.5,73.9,30.09,SSW,199,6.0,9.0,83,0.00,,---,0.00,VWS V14.01,2013-08-21 21:24:00,
2013-08-21 17:29:00,79.1,73.8,30.09,SSE,162,5.0,10.0,84,0.00,,---,0.00,VWS V14.01,2013-08-21 21:29:00,
2013-08-21 17:30:00,79.1,73.8,30.09,SW,225,4.0,11.0,84,0.00,,---,0.00,VWS V14.01,2013-08-21 21:30:00,
2013-08-21 17:34:00,78.8,73.9,30.09,SW,214,2.0,12.0,85,0.00,,---,0.00,VWS V14.01,2013-08-21 21:34:00,
2013-08-21 17:39:00,79.0,74.1,30.09,South,184,4.0,12.0,85,0.00,,---,0.00,VWS V14.01,2013-08-21 21:39:00,
2013-08-21 17:44:00,78.8,73.6,30.09,WSW,248,6.0,12.0,84,0.00,,---,0.00,VWS V14.01,2013-08-21 21:44:00,
2013-08-21 17:49:00,78.5,73.6,30.09,SSW,210,9.0,12.0,85,0.00,,---,0.00,VWS V14.01,2013-08-21 21:49:00,
2013-08-21 17:54:00,78.1,73.6,30.09,WSW,258,6.0,13.0,86,0.00,,---,0.00,VWS V14.01,2013-08-21 21:54:00,
2013-08-21 17:59:00,77.7,73.2,30.09,West,262,11.0,13.0,86,0.00,,---,0.00,VWS V14.01,2013-08-21 21:59:00,
2013-08-21 18:00:00,77.6,73.1,30.09,SW,225,6.0,13.0,86,0.00,,---,0.00,VWS V14.01,2013-08-21 22:00:00,
2013-08-21 18:04:00,77.5,73.3,30.08,WSW,246,10.0,11.0,87,0.00,,---,0.00,VWS V14.01,2013-08-21 22:04:00,
2013-08-21 18:09:00,77.4,73.2,30.08,West,262,5.0,11.0,87,0.00,,---,0.00,VWS V14.01,2013-08-21 22:09:00,
2013-08-21 18:14:00,77.3,73.1,30.08,SW,217,8.0,15.0,87,0.00,,---,0.00,VWS V14.01,2013-08-21 22:14:00,
2013-08-21 18:20:00,77.1,72.9,30.08,WSW,238,4.0,15.0,87,0.00,,---,0.00,VWS V14.01,2013-08-21 22:20:00,
2013-08-21 18:25:00,76.8,73.0,30.09,SSW,209,7.0,15.0,88,0.00,,---,0.00,VWS V14.01,2013-08-21 22:25:00,
2013-08-21 18:30:00,76.7,72.9,30.09,WSW,250,7.0,15.0,88,0.00,,---,0.00,VWS V14.01,2013-08-21 22:30:00,
2013-08-21 18:35:00,76.3,72.8,30.09,SW,223,7.0,14.0,89,0.00,,---,0.00,VWS V14.01,2013-08-21 22:35:00,
2013-08-21 18:40:00,75.9,72.8,30.08,WNW,288,5.0,14.0,90,0.00,,---,0.00,VWS V14.01,2013-08-21 22:40:00,
2013-08-21 18:45:00,75.8,72.7,30.08,SW,233,6.0,14.0,90,0.00,,---,0.00,VWS V14.01,2013-08-21 22:45:00,
2013-08-21 18:50:00,75.7,72.6,30.08,South,189,4.0,14.0,90,0.00,,---,0.00,VWS V14.01,2013-08-21 22:50:00,
2013-08-21 18:55:00,75.7,72.6,30.09,WSW,249,8.0,14.0,90,0.00,,---,0.00,VWS V14.01,2013-08-21 22:55:00,
2013-08-21 19:00:00,75.6,72.5,30.09,SSE,157,10.0,14.0,90,0.00,,---,0.00,VWS V14.01,2013-08-21 23:00:00,
2013-08-21 19:05:00,75.3,72.5,30.09,SSW,213,8.0,13.0,91,0.00,,---,0.00,VWS V14.01,2013-08-21 23:05:00,
2013-08-21 19:10:00,75.1,72.3,30.09,SW,218,10.0,13.0,91,0.00,,---,0.00,VWS V14.01,2013-08-21 23:10:00,
2013-08-21 19:15:00,74.9,72.1,30.09,SSW,206,6.0,13.0,91,0.00,,---,0.00,VWS V14.01,2013-08-21 23:15:00,
2013-08-21 19:20:00,74.9,72.1,30.09,NNW,341,7.0,13.0,91,0.00,,---,0.00,VWS V14.01,2013-08-21 23:20:00,
2013-08-21 19:25:00,74.8,72.0,30.09,SSW,193,6.0,13.0,91,0.00,,---,0.00,VWS V14.01,2013-08-21 23:25:00,
2013-08-21 19:30:00,74.7,71.9,30.09,South,176,5.0,13.0,91,0.00,,---,0.00,VWS V14.01,2013-08-21 23:30:00,
2013-08-21 19:35:00,74.5,72.0,30.09,SSW,200,6.0,10.0,92,0.00,,---,0.00,VWS V14.01,2013-08-21 23:35:00,
2013-08-21 19:40:00,74.4,71.9,30.09,SE,144,4.0,10.0,92,0.00,,---,0.00,VWS V14.01,2013-08-21 23:40:00,
2013-08-21 19:45:00,74.4,71.9,30.09,SSW,209,7.0,11.0,92,0.00,,---,0.00,VWS V14.01,2013-08-21 23:45:00,
2013-08-21 19:50:00,74.3,71.8,30.09,SE,139,7.0,11.0,92,0.00,,---,0.00,VWS V14.01,2013-08-21 23:50:00,
2013-08-21 19:55:00,74.3,71.8,30.09,SW,217,4.0,11.0,92,0.00,,---,0.00,VWS V14.01,2013-08-21 23:55:00,
2013-08-21 20:00:00,74.2,71.7,30.09,SSE,157,6.0,11.0,92,0.00,,---,0.00,VWS V14.01,2013-08-22 00:00:00,
2013-08-21 20:05:00,74.2,71.7,30.09,South,173,6.0,10.0,92,0.00,,---,0.00,VWS V14.01,2013-08-22 00:05:00,
2013-08-21 20:10:00,74.2,71.7,30.09,West,272,5.0,10.0,92,0.00,,---,0.00,VWS V14.01,2013-08-22 00:10:00,
2013-08-21 20:15:00,74.1,71.6,30.09,South,185,6.0,10.0,92,0.00,,---,0.00,VWS V14.01,2013-08-22 00:15:00,
2013-08-21 20:20:00,74.1,71.6,30.09,WSW,242,3.0,10.0,92,0.00,,---,0.00,VWS V14.01,2013-08-22 00:20:00,
2013-08-21 20:25:00,74.1,71.6,30.09,South,184,5.0,10.0,92,0.00,,---,0.00,VWS V14.01,2013-08-22 00:25:00,
2013-08-21 20:30:00,74.1,71.6,30.09,West,259,7.0,11.0,92,0.00,,---,0.00,VWS V14.01,2013-08-22 00:30:00,
2013-08-21 20:35:00,74.0,71.5,30.09,WNW,285,7.0,11.0,92,0.00,,---,0.00,VWS V14.01,2013-08-22 00:35:00,
2013-08-21 20:40:00,74.0,71.5,30.09,South,173,8.0,11.0,92,0.00,,---,0.00,VWS V14.01,2013-08-22 00:40:00,
2013-08-21 20:45:00,74.0,71.5,30.09,NNW,333,4.0,12.0,92,0.00,,---,0.00,VWS V14.01,2013-08-22 00:45:00,
2013-08-21 20:50:00,74.0,71.5,30.09,SSW,199,3.0,12.0,92,0.00,,---,0.00,VWS V14.01,2013-08-22 00:50:00,
2013-08-21 20:55:00,73.9,71.4,30.09,ESE,110,3.0,12.0,92,0.00,,---,0.00,VWS V14.01,2013-08-22 00:55:00,
2013-08-21 21:00:00,73.9,71.4,30.10,SSW,210,8.0,12.0,92,0.00,,---,0.00,VWS V14.01,2013-08-22 01:00:00,
2013-08-21 21:05:00,73.8,71.3,30.10,SSW,199,8.0,14.0,92,0.00,,---,0.00,VWS V14.01,2013-08-22 01:05:00,
2013-08-21 21:10:00,73.9,71.4,30.10,West,262,4.0,14.0,92,0.00,,---,0.00,VWS V14.01,2013-08-22 01:10:00,
2013-08-21 21:15:00,73.9,71.4,30.10,NW,313,4.0,14.0,92,0.00,,---,0.00,VWS V14.01,2013-08-22 01:15:00,
2013-08-21 21:20:00,73.8,71.3,30.10,South,185,4.0,14.0,92,0.00,,---,0.00,VWS V14.01,2013-08-22 01:20:00,
2013-08-21 21:25:00,73.7,71.2,30.10,South,180,6.0,14.0,92,0.00,,---,0.00,VWS V14.01,2013-08-22 01:25:00,
2013-08-21 21:30:00,73.7,71.2,30.10,South,174,4.0,14.0,92,0.00,,---,0.00,VWS V14.01,2013-08-22 01:30:00,
2013-08-21 21:35:00,73.6,71.1,30.10,East,91,13.0,13.0,92,0.00,,---,0.00,VWS V14.01,2013-08-22 01:35:00,
2013-08-21 21:40:00,73.6,71.1,30.10,ESE,109,5.0,13.0,92,0.00,,---,0.00,VWS V14.01,2013-08-22 01:40:00,
2013-08-21 21:45:00,73.5,71.0,30.09,SW,216,4.0,13.0,92,0.00,,---,0.00,VWS V14.01,2013-08-22 01:45:00,
2013-08-21 21:50:00,73.5,70.7,30.09,South,187,6.0,13.0,91,0.00,,---,0.00,VWS V14.01,2013-08-22 01:50:00,
2013-08-21 21:55:00,73.5,70.7,30.09,SSW,195,5.0,13.0,91,0.00,,---,0.00,VWS V14.01,2013-08-22 01:55:00,
2013-08-21 22:00:00,73.5,70.7,30.09,SW,229,8.0,13.0,91,0.00,,---,0.00,VWS V14.01,2013-08-22 02:00:00,
2013-08-21 22:05:00,73.5,70.7,30.09,SW,229,4.0,11.0,91,0.00,,---,0.00,VWS V14.01,2013-08-22 02:05:00,
2013-08-21 22:10:00,73.5,70.7,30.09,NNE,30,4.0,11.0,91,0.00,,---,0.00,VWS V14.01,2013-08-22 02:10:00,
2013-08-21 22:15:00,73.5,70.7,30.08,NW,309,2.0,12.0,91,0.00,,---,0.00,VWS V14.01,2013-08-22 02:15:00,
2013-08-21 22:20:00,73.5,70.7,30.08,WNW,288,5.0,12.0,91,0.00,,---,0.00,VWS V14.01,2013-08-22 02:20:00,
2013-08-21 22:25:00,73.5,70.4,30.08,ESE,111,7.0,12.0,90,0.00,,---,0.00,VWS V14.01,2013-08-22 02:25:00,
2013-08-21 22:30:00,73.5,70.4,30.09,SSW,205,9.0,12.0,90,0.00,,---,0.00,VWS V14.01,2013-08-22 02:30:00,
2013-08-21 22:35:00,73.5,70.4,30.09,NNW,333,2.0,11.0,90,0.00,,---,0.00,VWS V14.01,2013-08-22 02:35:00,
2013-08-21 22:40:00,73.5,70.4,30.09,West,264,3.0,11.0,90,0.00,,---,0.00,VWS V14.01,2013-08-22 02:40:00,
2013-08-21 22:45:00,73.6,70.2,30.09,NNW,335,7.0,14.0,89,0.00,,---,0.00,VWS V14.01,2013-08-22 02:45:00,
2013-08-21 22:50:00,73.7,70.3,30.09,SSW,193,5.0,15.0,89,0.00,,---,0.00,VWS V14.01,2013-08-22 02:50:00,
2013-08-21 22:55:00,73.7,70.3,30.09,SSE,155,8.0,15.0,89,0.00,,---,0.00,VWS V14.01,2013-08-22 02:55:00,
2013-08-21 23:00:00,73.7,70.3,30.09,SW,236,6.0,15.0,89,0.00,,---,0.00,VWS V14.01,2013-08-22 03:00:00,
2013-08-21 23:05:00,73.7,70.3,30.09,WSW,252,8.0,12.0,89,0.00,,---,0.00,VWS V14.01,2013-08-22 03:05:00,
2013-08-21 23:10:00,73.7,70.3,30.09,SW,220,3.0,14.0,89,0.00,,---,0.00,VWS V14.01,2013-08-22 03:10:00,
2013-08-21 23:15:00,73.8,70.0,30.09,WSW,238,9.0,15.0,88,0.00,,---,0.00,VWS V14.01,2013-08-22 03:15:00,
2013-08-21 23:20:00,73.8,70.4,30.09,SSE,165,11.0,15.0,89,0.00,,---,0.00,VWS V14.01,2013-08-22 03:20:00,
2013-08-21 23:25:00,73.7,70.3,30.09,SSW,196,4.0,15.0,89,0.00,,---,0.00,VWS V14.01,2013-08-22 03:25:00,
2013-08-21 23:30:00,73.6,70.2,30.09,SW,232,3.0,15.0,89,0.00,,---,0.00,VWS V14.01,2013-08-22 03:30:00,
2013-08-21 23:35:00,73.7,70.3,30.09,South,174,3.0,14.0,89,0.00,,---,0.00,VWS V14.01,2013-08-22 03:35:00,
2013-08-21 23:40:00,73.6,70.2,30.09,South,175,7.0,14.0,89,0.00,,---,0.00,VWS V14.01,2013-08-22 03:40:00,
2013-08-21 23:45:00,73.6,70.5,30.09,WSW,242,4.0,14.0,90,0.00,,---,0.00,VWS V14.01,2013-08-22 03:45:00,
2013-08-21 23:50:00,73.5,70.4,30.08,South,175,4.0,14.0,90,0.00,,---,0.00,VWS V14.01,2013-08-22 03:50:00,
2013-08-21 23:55:00,73.4,70.3,30.08,South,176,6.0,14.0,90,0.00,,---,0.00,VWS V14.01,2013-08-22 03:55:00,